Time,TemperatureF,DewpointF,PressureIn,WindDirection,WindDirectionDegrees,WindSpeedMPH,WindSpeedGustMPH,Humidity,HourlyPrecipIn,Conditions,Clouds,dailyrainin,SolarRadiationWatts/m^2,SoftwareType,DateUTC
2013-06-16 00:04:00,53.9,49.5,29.86,WNW,296,1.0,6.0,85,0.00,,,0.00,0,WeatherCatV1.20B467,2013-06-15 23:04:00,
2013-06-16 00:09:00,53.7,49.6,29.86,NNW,329,1.0,5.0,86,0.00,,,0.00,0,WeatherCatV1.20B467,2013-06-15 23:09:00,
2013-06-16 00:14:00,53.6,49.5,29.86,NW,309,5.0,5.0,86,0.00,,,0.00,0,WeatherCatV1.20B467,2013-06-15 23:14:00,
2013-06-16 00:19:00,53.5,49.7,29.86,NW,307,2.0,8.0,87,0.00,,,0.00,0,WeatherCatV1.20B467,2013-06-15 23:19:00,
2013-06-16 00:24:00,53.5,49.7,29.86,NNW,333,5.0,10.0,87,0.00,,,0.00,0,WeatherCatV1.20B467,2013-06-15 23:24:00,
2013-06-16 00:29:00,53.5,49.7,29.86,West,261,3.0,6.0,87,0.00,,,0.00,0,WeatherCatV1.20B467,2013-06-15 23:29:00,
2013-06-16 00:34:00,53.6,49.8,29.86,NW,325,7.0,11.0,87,0.00,,,0.00,0,WeatherCatV1.20B467,2013-06-15 23:34:00,
2013-06-16 00:39:00,53.7,49.6,29.86,NW,317,6.0,9.0,86,0.00,,,0.00,0,WeatherCatV1.20B467,2013-06-15 23:39:00,
2013-06-16 00:44:00,53.7,49.6,29.86,NW,326,6.0,8.0,86,0.00,,,0.00,0,WeatherCatV1.20B467,2013-06-15 23:44:00,
2013-06-16 00:49:00,53.8,49.7,29.86,SW,223,6.0,9.0,86,0.00,,,0.00,0,WeatherCatV1.20B467,2013-06-15 23:49:00,
2013-06-16 00:54:00,53.9,49.5,29.86,NW,307,5.0,9.0,85,0.00,,,0.00,0,WeatherCatV1.20B467,2013-06-15 23:54:00,
2013-06-16 00:59:00,53.9,49.5,29.86,WNW,296,4.0,7.0,85,0.00,,,0.00,0,WeatherCatV1.20B467,2013-06-15 23:59:00,
2013-06-16 01:04:00,53.9,49.5,29.86,WNW,292,1.0,9.0,85,0.00,,,0.00,0,WeatherCatV1.20B467,2013-06-16 00:04:00,
2013-06-16 01:09:00,53.9,49.5,29.87,NW,312,6.0,8.0,85,0.00,,,0.00,0,WeatherCatV1.20B467,2013-06-16 00:09:00,
2013-06-16 01:14:00,53.8,49.1,29.87,NNW,331,9.0,9.0,84,0.00,,,0.00,0,WeatherCatV1.20B467,2013-06-16 00:14:00,
2013-06-16 01:19:00,53.8,49.1,29.86,NW,318,6.0,11.0,84,0.00,,,0.00,0,WeatherCatV1.20B467,2013-06-16 00:19:00,
2013-06-16 01:24:00,53.7,49.0,29.86,WNW,283,3.0,8.0,84,0.00,,,0.00,0,WeatherCatV1.20B467,2013-06-16 00:24:00,
2013-06-16 01:29:00,53.7,49.3,29.86,NW,312,4.0,5.0,85,0.00,,,0.00,0,WeatherCatV1.20B467,2013-06-16 00:29:00,
2013-06-16 01:34:00,53.6,49.2,29.86,NW,304,2.0,6.0,85,0.00,,,0.00,0,WeatherCatV1.20B467,2013-06-16 00:34:00,
2013-06-16 01:39:00,53.5,49.1,29.86,NW,318,5.0,9.0,85,0.00,,,0.00,0,WeatherCatV1.20B467,2013-06-16 00:39:00,
2013-06-16 01:44:00,53.3,48.9,29.86,NW,314,4.0,7.0,85,0.00,,,0.00,0,WeatherCatV1.20B467,2013-06-16 00:44:00,
2013-06-16 01:49:00,53.2,49.1,29.87,NNW,340,1.0,7.0,86,0.00,,,0.00,0,WeatherCatV1.20B467,2013-06-16 00:49:00,
2013-06-16 01:54:00,53.1,49.0,29.87,NW,308,3.0,5.0,86,0.00,,,0.00,0,WeatherCatV1.20B467,2013-06-16 00:54:00,
2013-06-16 01:59:00,53.0,48.9,29.87,West,269,1.0,4.0,86,0.00,,,0.00,0,WeatherCatV1.20B467,2013-06-16 00:59:00,
2013-06-16 02:04:00,52.9,49.1,29.87,NW,304,2.0,7.0,87,0.00,,,0.00,0,WeatherCatV1.20B467,2013-06-16 01:04:00,
2013-06-16 02:09:00,52.8,49.0,29.87,NW,317,6.0,7.0,87,0.00,,,0.00,0,WeatherCatV1.20B467,2013-06-16 01:09:00,
2013-06-16 02:14:00,52.8,49.0,29.87,NW,306,3.0,4.0,87,0.00,,,0.00,0,WeatherCatV1.20B467,2013-06-16 01:14:00,
2013-06-16 02:19:00,52.8,49.0,29.87,NW,324,4.0,6.0,87,0.00,,,0.00,0,WeatherCatV1.20B467,2013-06-16 01:19:00,
2013-06-16 02:24:00,52.7,48.9,29.87,WNW,285,2.0,3.0,87,0.00,,,0.00,0,WeatherCatV1.20B467,2013-06-16 01:24:00,
2013-06-16 02:29:00,52.7,48.9,29.87,NW,313,3.0,9.0,87,0.00,,,0.00,0,WeatherCatV1.20B467,2013-06-16 01:29:00,
2013-06-16 02:34:00,52.7,48.9,29.87,NW,325,3.0,7.0,87,0.00,,,0.00,0,WeatherCatV1.20B467,2013-06-16 01:34:00,
2013-06-16 02:39:00,52.7,48.9,29.87,WNW,300,1.0,5.0,87,0.00,,,0.00,0,WeatherCatV1.20B467,2013-06-16 01:39:00,
2013-06-16 02:44:00,52.6,49.1,29.87,West,275,3.0,4.0,88,0.00,,,0.00,0,WeatherCatV1.20B467,2013-06-16 01:44:00,
2013-06-16 02:49:00,52.6,49.1,29.87,NW,314,3.0,5.0,88,0.00,,,0.00,0,WeatherCatV1.20B467,2013-06-16 01:49:00,
2013-06-16 02:54:00,52.6,49.1,29.87,NW,325,2.0,7.0,88,0.00,,,0.00,0,WeatherCatV1.20B467,2013-06-16 01:54:00,
2013-06-16 02:59:00,52.6,49.1,29.87,NW,317,4.0,5.0,88,0.00,,,0.00,0,WeatherCatV1.20B467,2013-06-16 01:59:00,
2013-06-16 03:04:00,52.6,48.8,29.87,NW,318,4.0,7.0,87,0.00,,,0.00,0,WeatherCatV1.20B467,2013-06-16 02:04:00,
2013-06-16 03:09:00,52.6,48.8,29.87,NNW,327,5.0,7.0,87,0.00,,,0.00,0,WeatherCatV1.20B467,2013-06-16 02:09:00,
2013-06-16 03:14:00,52.6,48.8,29.87,NW,308,4.0,9.0,87,0.00,,,0.00,0,WeatherCatV1.20B467,2013-06-16 02:14:00,
2013-06-16 03:19:00,52.6,48.8,29.86,NW,317,7.0,7.0,87,0.00,,,0.00,0,WeatherCatV1.20B467,2013-06-16 02:19:00,
2013-06-16 03:24:00,52.6,48.8,29.87,West,274,6.0,11.0,87,0.00,,,0.00,0,WeatherCatV1.20B467,2013-06-16 02:24:00,
2013-06-16 03:29:00,52.6,48.8,29.87,NW,315,3.0,8.0,87,0.00,,,0.00,0,WeatherCatV1.20B467,2013-06-16 02:29:00,
2013-06-16 03:34:00,52.5,48.7,29.86,NW,311,2.0,4.0,87,0.00,,,0.00,0,WeatherCatV1.20B467,2013-06-16 02:34:00,
2013-06-16 03:39:00,52.4,48.6,29.87,NW,325,5.0,5.0,87,0.00,,,0.00,0,WeatherCatV1.20B467,2013-06-16 02:39:00,
2013-06-16 03:44:00,52.4,48.6,29.86,WNW,295,2.0,4.0,87,0.00,,,0.00,0,WeatherCatV1.20B467,2013-06-16 02:44:00,
2013-06-16 03:49:00,52.3,48.5,29.87,NW,305,6.0,8.0,87,0.00,,,0.00,0,WeatherCatV1.20B467,2013-06-16 02:49:00,
2013-06-16 03:54:00,52.3,48.5,29.87,WNW,300,0.0,3.0,87,0.00,,,0.00,0,WeatherCatV1.20B467,2013-06-16 02:54:00,
2013-06-16 03:59:00,52.3,48.5,29.87,NW,323,5.0,6.0,87,0.00,,,0.00,0,WeatherCatV1.20B467,2013-06-16 02:59:00,
2013-06-16 04:04:00,52.2,48.4,29.87,NW,313,1.0,7.0,87,0.00,,,0.00,0,WeatherCatV1.20B467,2013-06-16 03:04:00,
2013-06-16 04:09:00,52.2,48.4,29.87,NW,311,2.0,4.0,87,0.00,,,0.00,0,WeatherCatV1.20B467,2013-06-16 03:09:00,
2013-06-16 04:14:00,52.1,48.7,29.87,NW,319,3.0,6.0,88,0.00,,,0.00,0,WeatherCatV1.20B467,2013-06-16 03:14:00,
2013-06-16 04:19:00,52.1,48.7,29.88,NW,315,3.0,8.0,88,0.00,,,0.00,0,WeatherCatV1.20B467,2013-06-16 03:19:00,
2013-06-16 04:24:00,52.1,48.7,29.88,NW,316,1.0,4.0,88,0.00,,,0.00,0,WeatherCatV1.20B467,2013-06-16 03:24:00,
2013-06-16 04:29:00,52.1,48.7,29.88,NW,317,0.0,3.0,88,0.00,,,0.00,0,WeatherCatV1.20B467,2013-06-16 03:29:00,
2013-06-16 04:34:00,52.0,48.6,29.88,NW,316,4.0,5.0,88,0.00,,,0.00,0,WeatherCatV1.20B467,2013-06-16 03:34:00,
2013-06-16 04:39:00,51.9,48.5,29.88,NW,314,2.0,6.0,88,0.00,,,0.00,0,WeatherCatV1.20B467,2013-06-16 03:39:00,
2013-06-16 04:44:00,51.9,48.5,29.88,NW,318,6.0,6.0,88,0.00,,,0.00,5,WeatherCatV1.20B467,2013-06-16 03:44:00,
2013-06-16 04:49:00,51.9,48.5,29.88,NNW,329,2.0,5.0,88,0.00,,,0.00,5,WeatherCatV1.20B467,2013-06-16 03:49:00,
2013-06-16 04:52:00,51.8,48.4,29.88,NNW,329,2.0,3.0,88,0.00,,,0.00,5,WeatherCatV1.20B467,2013-06-16 03:52:00,
2013-06-16 04:57:00,51.8,48.4,29.88,NW,317,3.0,6.0,88,0.00,,,0.00,7,WeatherCatV1.20B467,2013-06-16 03:57:00,
2013-06-16 05:01:00,51.8,48.4,29.88,NW,318,0.0,6.0,88,0.00,,,0.00,9,WeatherCatV1.20B467,2013-06-16 04:01:00,
2013-06-16 05:06:00,51.9,48.5,29.88,NW,318,1.0,3.0,88,0.00,,,0.00,16,WeatherCatV1.20B467,2013-06-16 04:06:00,
2013-06-16 05:11:00,51.9,48.5,29.88,WNW,282,2.0,4.0,88,0.00,,,0.00,26,WeatherCatV1.20B467,2013-06-16 04:11:00,
2013-06-16 05:16:00,51.9,48.5,29.88,NW,309,2.0,5.0,88,0.00,,,0.00,35,WeatherCatV1.20B467,2013-06-16 04:16:00,
2013-06-16 05:21:00,51.9,48.5,29.88,NW,315,5.0,7.0,88,0.00,,,0.00,37,WeatherCatV1.20B467,2013-06-16 04:21:00,
2013-06-16 05:26:00,51.9,48.5,29.88,NW,318,2.0,5.0,88,0.00,,,0.00,39,WeatherCatV1.20B467,2013-06-16 04:26:00,
2013-06-16 05:31:00,52.0,48.6,29.88,WNW,293,4.0,5.0,88,0.00,,,0.00,44,WeatherCatV1.20B467,2013-06-16 04:31:00,
2013-06-16 05:36:00,52.1,48.7,29.89,WNW,300,2.0,4.0,88,0.00,,,0.00,53,WeatherCatV1.20B467,2013-06-16 04:36:00,
2013-06-16 05:41:00,52.1,48.7,29.89,West,273,3.0,6.0,88,0.00,,,0.00,49,WeatherCatV1.20B467,2013-06-16 04:41:00,
2013-06-16 05:46:00,52.2,48.8,29.89,NW,304,5.0,5.0,88,0.00,,,0.00,44,WeatherCatV1.20B467,2013-06-16 04:46:00,
2013-06-16 05:51:00,52.2,48.8,29.89,NW,308,3.0,5.0,88,0.00,,,0.00,42,WeatherCatV1.20B467,2013-06-16 04:51:00,
2013-06-16 05:56:00,52.2,48.8,29.89,NW,312,3.0,7.0,88,0.00,,,0.00,53,WeatherCatV1.20B467,2013-06-16 04:56:00,
2013-06-16 06:01:00,52.3,48.5,29.89,NW,304,0.0,2.0,87,0.00,,,0.00,69,WeatherCatV1.20B467,2013-06-16 05:01:00,
2013-06-16 06:06:00,52.3,48.9,29.89,NW,313,5.0,5.0,88,0.00,,,0.00,77,WeatherCatV1.20B467,2013-06-16 05:06:00,
2013-06-16 06:11:00,52.4,48.6,29.90,NW,306,4.0,5.0,87,0.00,,,0.00,77,WeatherCatV1.20B467,2013-06-16 05:11:00,
2013-06-16 06:16:00,52.5,48.7,29.90,WNW,302,1.0,4.0,87,0.00,,,0.00,83,WeatherCatV1.20B467,2013-06-16 05:16:00,
2013-06-16 06:21:00,52.6,48.8,29.90,NW,317,1.0,5.0,87,0.00,,,0.00,86,WeatherCatV1.20B467,2013-06-16 05:21:00,
2013-06-16 06:26:00,52.7,48.9,29.90,WNW,292,0.0,3.0,87,0.00,,,0.00,86,WeatherCatV1.20B467,2013-06-16 05:26:00,
2013-06-16 06:31:00,52.7,48.9,29.90,NW,316,2.0,2.0,87,0.00,,,0.00,88,WeatherCatV1.20B467,2013-06-16 05:31:00,
2013-06-16 06:36:00,52.8,49.0,29.90,NW,315,1.0,4.0,87,0.00,,,0.00,95,WeatherCatV1.20B467,2013-06-16 05:36:00,
2013-06-16 06:41:00,52.9,49.1,29.90,NW,311,1.0,4.0,87,0.00,,,0.00,105,WeatherCatV1.20B467,2013-06-16 05:41:00,
2013-06-16 06:46:00,53.1,49.3,29.90,WSW,256,2.0,4.0,87,0.00,,,0.00,121,WeatherCatV1.20B467,2013-06-16 05:46:00,
2013-06-16 06:51:00,53.1,49.3,29.90,SW,232,3.0,6.0,87,0.00,,,0.00,128,WeatherCatV1.20B467,2013-06-16 05:51:00,
2013-06-16 06:56:00,53.1,49.3,29.90,NW,325,1.0,6.0,87,0.00,,,0.00,130,WeatherCatV1.20B467,2013-06-16 05:56:00,
2013-06-16 07:01:00,53.2,49.4,29.90,WNW,300,4.0,10.0,87,0.00,,,0.00,141,WeatherCatV1.20B467,2013-06-16 06:01:00,
2013-06-16 07:06:00,53.3,49.5,29.90,North,5,6.0,6.0,87,0.00,,,0.00,158,WeatherCatV1.20B467,2013-06-16 06:06:00,
2013-06-16 07:11:00,53.4,49.6,29.91,NW,315,4.0,9.0,87,0.00,,,0.00,162,WeatherCatV1.20B467,2013-06-16 06:11:00,
2013-06-16 07:16:00,53.5,49.7,29.91,WNW,302,6.0,6.0,87,0.00,,,0.00,163,WeatherCatV1.20B467,2013-06-16 06:16:00,
2013-06-16 07:21:00,53.6,49.5,29.91,NW,311,6.0,6.0,86,0.00,,,0.00,148,WeatherCatV1.20B467,2013-06-16 06:21:00,
2013-06-16 07:26:00,53.6,49.5,29.91,WNW,298,4.0,6.0,86,0.00,,,0.00,158,WeatherCatV1.20B467,2013-06-16 06:26:00,
2013-06-16 07:31:00,53.7,49.6,29.91,NW,312,2.0,4.0,86,0.00,,,0.00,206,WeatherCatV1.20B467,2013-06-16 06:31:00,
2013-06-16 07:36:00,53.9,49.8,29.91,North,5,6.0,8.0,86,0.00,,,0.00,195,WeatherCatV1.20B467,2013-06-16 06:36:00,
2013-06-16 07:41:00,54.1,50.0,29.91,NNW,328,2.0,6.0,86,0.00,,,0.00,206,WeatherCatV1.20B467,2013-06-16 06:41:00,
2013-06-16 07:46:00,54.2,49.8,29.91,NNW,338,4.0,5.0,85,0.00,,,0.00,209,WeatherCatV1.20B467,2013-06-16 06:46:00,
2013-06-16 07:51:00,54.4,50.0,29.91,NW,307,3.0,7.0,85,0.00,,,0.00,278,WeatherCatV1.20B467,2013-06-16 06:51:00,
2013-06-16 07:56:00,54.6,50.2,29.91,NW,317,2.0,4.0,85,0.00,,,0.00,302,WeatherCatV1.20B467,2013-06-16 06:56:00,
2013-06-16 08:01:00,54.9,50.2,29.91,NW,313,4.0,6.0,84,0.00,,,0.00,327,WeatherCatV1.20B467,2013-06-16 07:01:00,
2013-06-16 08:06:00,55.2,50.4,29.91,WNW,298,5.0,5.0,84,0.00,,,0.00,323,WeatherCatV1.20B467,2013-06-16 07:06:00,
2013-06-16 08:11:00,55.3,50.5,29.91,NW,309,4.0,8.0,84,0.00,,,0.00,251,WeatherCatV1.20B467,2013-06-16 07:11:00,
2013-06-16 08:16:00,55.3,50.5,29.91,NW,317,4.0,4.0,84,0.00,,,0.00,290,WeatherCatV1.20B467,2013-06-16 07:16:00,
2013-06-16 08:21:00,55.7,50.6,29.91,NNW,342,7.0,7.0,83,0.00,,,0.00,329,WeatherCatV1.20B467,2013-06-16 07:21:00,
2013-06-16 08:26:00,55.7,50.3,29.91,NW,323,2.0,8.0,82,0.00,,,0.00,373,WeatherCatV1.20B467,2013-06-16 07:26:00,
2013-06-16 08:31:00,55.7,50.3,29.91,NNW,327,7.0,7.0,82,0.00,,,0.00,272,WeatherCatV1.20B467,2013-06-16 07:31:00,
2013-06-16 08:36:00,55.9,50.5,29.91,NW,304,1.0,4.0,82,0.00,,,0.00,269,WeatherCatV1.20B467,2013-06-16 07:36:00,
2013-06-16 08:41:00,56.1,50.7,29.91,NW,307,2.0,5.0,82,0.00,,,0.00,417,WeatherCatV1.20B467,2013-06-16 07:41:00,
2013-06-16 08:46:00,56.1,50.3,29.92,NW,311,0.0,6.0,81,0.00,,,0.00,330,WeatherCatV1.20B467,2013-06-16 07:46:00,
2013-06-16 08:51:00,56.4,50.6,29.92,NNW,340,4.0,8.0,81,0.00,,,0.00,374,WeatherCatV1.20B467,2013-06-16 07:51:00,
2013-06-16 08:56:00,56.8,51.0,29.92,WNW,290,3.0,4.0,81,0.00,,,0.00,338,WeatherCatV1.20B467,2013-06-16 07:56:00,
2013-06-16 09:01:00,56.8,50.7,29.91,WSW,243,1.0,6.0,80,0.00,,,0.00,431,WeatherCatV1.20B467,2013-06-16 08:01:00,
2013-06-16 09:06:00,57.0,50.5,29.91,NW,313,5.0,9.0,79,0.00,,,0.00,464,WeatherCatV1.20B467,2013-06-16 08:06:00,
2013-06-16 09:11:00,57.1,50.6,29.92,NNW,333,3.0,8.0,79,0.00,,,0.00,343,WeatherCatV1.20B467,2013-06-16 08:11:00,
2013-06-16 09:16:00,57.2,50.7,29.92,South,180,1.0,5.0,79,0.00,,,0.00,399,WeatherCatV1.20B467,2013-06-16 08:16:00,
2013-06-16 09:21:00,57.1,50.3,29.92,WNW,296,4.0,6.0,78,0.00,,,0.00,403,WeatherCatV1.20B467,2013-06-16 08:21:00,
2013-06-16 09:26:00,57.2,50.7,29.92,NW,314,4.0,4.0,79,0.00,,,0.00,369,WeatherCatV1.20B467,2013-06-16 08:26:00,
2013-06-16 09:31:00,57.5,50.7,29.92,NNW,336,4.0,5.0,78,0.00,,,0.00,383,WeatherCatV1.20B467,2013-06-16 08:31:00,
2013-06-16 09:36:00,57.7,50.9,29.91,NW,313,1.0,3.0,78,0.00,,,0.00,374,WeatherCatV1.20B467,2013-06-16 08:36:00,
2013-06-16 09:41:00,57.8,50.6,29.91,NW,322,1.0,8.0,77,0.00,,,0.00,359,WeatherCatV1.20B467,2013-06-16 08:41:00,
2013-06-16 09:46:00,57.6,50.4,29.91,NNW,328,2.0,5.0,77,0.00,,,0.00,329,WeatherCatV1.20B467,2013-06-16 08:46:00,
2013-06-16 09:51:00,57.5,50.0,29.92,WNW,300,3.0,7.0,76,0.00,,,0.00,341,WeatherCatV1.20B467,2013-06-16 08:51:00,
2013-06-16 09:56:00,57.5,50.7,29.92,WNW,301,1.0,6.0,78,0.00,,,0.00,313,WeatherCatV1.20B467,2013-06-16 08:56:00,
2013-06-16 10:01:00,57.7,50.5,29.92,NNW,327,1.0,7.0,77,0.00,,,0.00,350,WeatherCatV1.20B467,2013-06-16 09:01:00,
2013-06-16 10:06:00,58.1,50.9,29.92,WSW,239,5.0,6.0,77,0.00,,,0.00,396,WeatherCatV1.20B467,2013-06-16 09:06:00,
2013-06-16 10:11:00,58.1,50.2,29.92,NW,319,5.0,6.0,75,0.00,,,0.00,438,WeatherCatV1.20B467,2013-06-16 09:11:00,
2013-06-16 10:16:00,58.1,50.2,29.92,WNW,300,3.0,6.0,75,0.00,,,0.00,459,WeatherCatV1.20B467,2013-06-16 09:16:00,
2013-06-16 10:21:00,58.3,50.4,29.92,SW,234,4.0,6.0,75,0.00,,,0.00,374,WeatherCatV1.20B467,2013-06-16 09:21:00,
2013-06-16 10:26:00,58.5,50.6,29.92,West,277,3.0,4.0,75,0.00,,,0.00,487,WeatherCatV1.20B467,2013-06-16 09:26:00,
2013-06-16 10:31:00,59.1,50.8,29.92,West,259,3.0,6.0,74,0.00,,,0.00,533,WeatherCatV1.20B467,2013-06-16 09:31:00,
2013-06-16 10:36:00,59.3,51.0,29.92,NW,313,5.0,8.0,74,0.00,,,0.00,506,WeatherCatV1.20B467,2013-06-16 09:36:00,
2013-06-16 10:41:00,59.4,50.4,29.92,NNW,330,2.0,6.0,72,0.00,,,0.00,401,WeatherCatV1.20B467,2013-06-16 09:41:00,
2013-06-16 10:46:00,59.5,49.7,29.92,WNW,302,2.0,10.0,70,0.00,,,0.00,454,WeatherCatV1.20B467,2013-06-16 09:46:00,
2013-06-16 10:51:00,59.2,49.8,29.92,NW,315,4.0,8.0,71,0.00,,,0.00,420,WeatherCatV1.20B467,2013-06-16 09:51:00,
2013-06-16 10:56:00,59.0,49.6,29.92,West,271,3.0,6.0,71,0.00,,,0.00,397,WeatherCatV1.20B467,2013-06-16 09:56:00,
2013-06-16 11:01:00,59.3,49.9,29.92,NW,322,4.0,8.0,71,0.00,,,0.00,438,WeatherCatV1.20B467,2013-06-16 10:01:00,
2013-06-16 11:06:00,59.0,49.6,29.92,WNW,300,0.0,7.0,71,0.00,,,0.00,353,WeatherCatV1.20B467,2013-06-16 10:06:00,
2013-06-16 11:11:00,59.7,49.9,29.92,NW,317,1.0,3.0,70,0.00,,,0.00,366,WeatherCatV1.20B467,2013-06-16 10:11:00,
2013-06-16 11:16:00,59.8,49.2,29.93,NW,309,2.0,8.0,68,0.00,,,0.00,403,WeatherCatV1.20B467,2013-06-16 10:16:00,
2013-06-16 11:21:00,59.7,49.5,29.93,NW,306,4.0,7.0,69,0.00,,,0.00,396,WeatherCatV1.20B467,2013-06-16 10:21:00,
2013-06-16 11:26:00,59.8,49.2,29.93,NW,310,3.0,6.0,68,0.00,,,0.00,355,WeatherCatV1.20B467,2013-06-16 10:26:00,
2013-06-16 11:31:00,59.6,48.6,29.93,NW,310,6.0,7.0,67,0.00,,,0.00,369,WeatherCatV1.20B467,2013-06-16 10:31:00,
2013-06-16 11:36:00,59.6,48.6,29.93,NNW,328,2.0,8.0,67,0.00,,,0.00,359,WeatherCatV1.20B467,2013-06-16 10:36:00,
2013-06-16 11:41:00,59.4,48.0,29.93,NW,321,2.0,6.0,66,0.00,,,0.00,367,WeatherCatV1.20B467,2013-06-16 10:41:00,
2013-06-16 11:46:00,59.3,48.7,29.93,WNW,298,4.0,4.0,68,0.00,,,0.00,378,WeatherCatV1.20B467,2013-06-16 10:46:00,
2013-06-16 11:51:00,59.7,49.1,29.93,WNW,294,3.0,9.0,68,0.00,,,0.00,315,WeatherCatV1.20B467,2013-06-16 10:51:00,
2013-06-16 11:56:00,59.6,49.0,29.94,WNW,285,4.0,6.0,68,0.00,,,0.00,295,WeatherCatV1.20B467,2013-06-16 10:56:00,
2013-06-16 12:01:00,59.9,48.9,29.94,NW,315,1.0,5.0,67,0.00,,,0.00,279,WeatherCatV1.20B467,2013-06-16 11:01:00,
2013-06-16 12:06:00,60.1,49.1,29.94,NW,316,3.0,4.0,67,0.00,,,0.00,304,WeatherCatV1.20B467,2013-06-16 11:06:00,
2013-06-16 12:11:00,59.7,49.1,29.94,NW,325,5.0,6.0,68,0.00,,,0.00,299,WeatherCatV1.20B467,2013-06-16 11:11:00,
2013-06-16 12:16:00,59.4,49.2,29.94,NW,315,3.0,4.0,69,0.00,,,0.00,302,WeatherCatV1.20B467,2013-06-16 11:16:00,
2013-06-16 12:21:00,59.8,49.2,29.94,WNW,286,2.0,5.0,68,0.00,,,0.00,290,WeatherCatV1.20B467,2013-06-16 11:21:00,
2013-06-16 12:26:00,59.7,48.7,29.94,NNW,341,4.0,6.0,67,0.00,,,0.00,332,WeatherCatV1.20B467,2013-06-16 11:26:00,
2013-06-16 12:31:00,59.9,48.5,29.94,WNW,298,4.0,9.0,66,0.00,,,0.00,387,WeatherCatV1.20B467,2013-06-16 11:31:00,
2013-06-16 12:36:00,59.9,48.1,29.94,West,273,3.0,6.0,65,0.00,,,0.00,439,WeatherCatV1.20B467,2013-06-16 11:36:00,
2013-06-16 12:41:00,60.2,48.4,29.94,NW,323,4.0,8.0,65,0.00,,,0.00,457,WeatherCatV1.20B467,2013-06-16 11:41:00,
2013-06-16 12:46:00,60.5,49.1,29.94,NW,312,2.0,3.0,66,0.00,,,0.00,353,WeatherCatV1.20B467,2013-06-16 11:46:00,
2013-06-16 13:04:00,60.2,48.8,29.94,NNW,332,3.0,6.0,66,0.00,,,0.00,343,WeatherCatV1.20B467,2013-06-16 12:04:00,
2013-06-16 13:09:00,59.8,48.8,29.94,West,270,4.0,8.0,67,0.00,,,0.00,255,WeatherCatV1.20B467,2013-06-16 12:09:00,
2013-06-16 13:14:00,59.8,49.6,29.94,NNE,26,4.0,7.0,69,0.00,,,0.00,162,WeatherCatV1.20B467,2013-06-16 12:14:00,
2013-06-16 13:19:00,59.7,49.5,29.94,WNW,301,4.0,6.0,69,0.00,,,0.00,207,WeatherCatV1.20B467,2013-06-16 12:19:00,
2013-06-16 13:24:00,59.2,49.4,29.94,WNW,286,3.0,4.0,70,0.00,,,0.00,178,WeatherCatV1.20B467,2013-06-16 12:24:00,
2013-06-16 13:29:00,58.9,50.3,29.94,NW,325,3.0,4.0,73,0.00,,,0.00,156,WeatherCatV1.20B467,2013-06-16 12:29:00,
2013-06-16 13:34:00,58.6,50.3,29.94,WNW,302,3.0,7.0,74,0.00,,,0.00,220,WeatherCatV1.20B467,2013-06-16 12:34:00,
2013-06-16 13:39:00,58.3,50.8,29.94,WNW,288,3.0,6.0,76,0.00,,,0.00,311,WeatherCatV1.20B467,2013-06-16 12:39:00,
2013-06-16 13:44:00,58.4,51.2,29.94,NW,318,0.0,2.0,77,0.00,,,0.00,290,WeatherCatV1.20B467,2013-06-16 12:44:00,
2013-06-16 13:49:00,58.2,51.4,29.95,WNW,298,4.0,6.0,78,0.00,,,0.00,253,WeatherCatV1.20B467,2013-06-16 12:49:00,
2013-06-16 13:54:00,58.0,51.2,29.95,West,273,0.0,3.0,78,0.00,,,0.00,390,WeatherCatV1.20B467,2013-06-16 12:54:00,
2013-06-16 13:59:00,58.1,51.3,29.95,NW,314,4.0,7.0,78,0.00,,,0.00,420,WeatherCatV1.20B467,2013-06-16 12:59:00,
2013-06-16 14:04:00,58.0,50.5,29.95,NW,312,4.0,5.0,76,0.00,,,0.00,475,WeatherCatV1.20B467,2013-06-16 13:04:00,
2013-06-16 14:09:00,58.2,51.4,29.95,NW,324,8.0,8.0,78,0.00,,,0.00,524,WeatherCatV1.20B467,2013-06-16 13:09:00,
2013-06-16 14:14:00,58.4,51.6,29.95,NW,326,1.0,3.0,78,0.00,,,0.00,480,WeatherCatV1.20B467,2013-06-16 13:14:00,
2013-06-16 14:19:00,58.0,51.5,29.95,NW,321,4.0,7.0,79,0.00,,,0.01,427,WeatherCatV1.20B467,2013-06-16 13:19:00,
2013-06-16 14:24:00,58.4,52.9,29.95,NNW,343,1.0,5.0,82,0.00,,,0.01,805,WeatherCatV1.20B467,2013-06-16 13:24:00,
2013-06-16 14:29:00,59.5,53.0,29.95,NW,323,2.0,6.0,79,0.00,,,0.01,904,WeatherCatV1.20B467,2013-06-16 13:29:00,
2013-06-16 14:34:00,59.9,52.3,29.95,NW,314,1.0,5.0,76,0.00,,,0.01,914,WeatherCatV1.20B467,2013-06-16 13:34:00,
2013-06-16 14:39:00,60.4,53.2,29.95,NW,319,3.0,4.0,77,0.00,,,0.01,1078,WeatherCatV1.20B467,2013-06-16 13:39:00,
2013-06-16 14:44:00,60.5,51.0,29.95,NW,313,3.0,8.0,71,0.00,,,0.01,657,WeatherCatV1.20B467,2013-06-16 13:44:00,
2013-06-16 14:49:00,59.7,51.8,29.95,NW,319,3.0,3.0,75,0.00,,,0.01,278,WeatherCatV1.20B467,2013-06-16 13:49:00,
2013-06-16 14:54:00,60.4,52.1,29.95,SE,130,2.0,5.0,74,0.00,,,0.01,269,WeatherCatV1.20B467,2013-06-16 13:54:00,
2013-06-16 14:59:00,60.8,51.3,29.94,NW,319,3.0,7.0,71,0.00,,,0.01,371,WeatherCatV1.20B467,2013-06-16 13:59:00,
2013-06-16 15:04:00,60.9,51.8,29.94,SE,136,1.0,2.0,72,0.00,,,0.01,404,WeatherCatV1.20B467,2013-06-16 14:04:00,
2013-06-16 15:09:00,60.5,50.7,29.95,NW,306,2.0,6.0,70,0.00,,,0.01,360,WeatherCatV1.20B467,2013-06-16 14:09:00,
2013-06-16 15:14:00,59.8,50.8,29.95,NW,306,3.0,5.0,72,0.00,,,0.01,360,WeatherCatV1.20B467,2013-06-16 14:14:00,
2013-06-16 15:19:00,60.0,50.6,29.95,NW,319,3.0,5.0,71,0.00,,,0.01,239,WeatherCatV1.20B467,2013-06-16 14:19:00,
2013-06-16 15:24:00,59.6,50.2,29.95,NW,309,1.0,4.0,71,0.00,,,0.01,232,WeatherCatV1.20B467,2013-06-16 14:24:00,
2013-06-16 15:29:00,59.3,50.3,29.95,NW,316,1.0,5.0,72,0.00,,,0.01,225,WeatherCatV1.20B467,2013-06-16 14:29:00,
2013-06-16 15:34:00,59.4,50.7,29.94,NW,309,1.0,4.0,73,0.00,,,0.01,341,WeatherCatV1.20B467,2013-06-16 14:34:00,
2013-06-16 15:39:00,60.0,50.9,29.94,NW,324,0.0,2.0,72,0.00,,,0.01,313,WeatherCatV1.20B467,2013-06-16 14:39:00,
2013-06-16 15:44:00,60.4,50.2,29.95,WNW,301,3.0,4.0,69,0.00,,,0.01,253,WeatherCatV1.20B467,2013-06-16 14:44:00,
2013-06-16 15:49:00,60.0,49.8,29.94,NW,317,0.0,4.0,69,0.00,,,0.01,336,WeatherCatV1.20B467,2013-06-16 14:49:00,
2013-06-16 15:54:00,60.8,49.8,29.94,WNW,295,1.0,3.0,67,0.00,,,0.01,373,WeatherCatV1.20B467,2013-06-16 14:54:00,
2013-06-16 15:59:00,61.5,50.0,29.94,WNW,303,0.0,2.0,66,0.00,,,0.01,348,WeatherCatV1.20B467,2013-06-16 14:59:00,
2013-06-16 16:04:00,61.9,49.2,29.94,WNW,299,0.0,3.0,63,0.00,,,0.01,338,WeatherCatV1.20B467,2013-06-16 15:04:00,
2013-06-16 16:09:00,60.7,49.3,29.94,NW,318,4.0,5.0,66,0.00,,,0.01,332,WeatherCatV1.20B467,2013-06-16 15:09:00,
2013-06-16 16:14:00,60.3,48.5,29.94,NNW,331,0.0,3.0,65,0.00,,,0.01,406,WeatherCatV1.20B467,2013-06-16 15:14:00,
2013-06-16 16:19:00,60.9,49.5,29.94,WNW,292,2.0,4.0,66,0.00,,,0.01,373,WeatherCatV1.20B467,2013-06-16 15:19:00,
2013-06-16 16:24:00,62.8,49.1,29.94,WSW,250,0.0,2.0,61,0.00,,,0.01,383,WeatherCatV1.20B467,2013-06-16 15:24:00,
2013-06-16 16:29:00,64.0,50.7,29.94,WNW,288,1.0,3.0,62,0.00,,,0.01,673,WeatherCatV1.20B467,2013-06-16 15:29:00,
2013-06-16 16:30:00,64.2,50.9,29.94,WNW,284,1.0,2.0,62,0.00,,,0.00,814,WeatherCatV1.20B467,2013-06-16 15:30:00,
2013-06-16 16:35:00,64.7,50.5,29.93,WNW,299,1.0,5.0,60,0.00,,,0.00,679,WeatherCatV1.20B467,2013-06-16 15:35:00,
2013-06-16 16:40:00,64.7,50.5,29.93,WNW,299,1.0,5.0,60,0.00,,,0.00,679,WeatherCatV1.20B467,2013-06-16 15:40:00,
2013-06-16 16:45:00,64.7,50.5,29.93,WNW,299,1.0,5.0,60,0.00,,,0.00,679,WeatherCatV1.20B467,2013-06-16 15:45:00,
2013-06-16 16:50:00,64.7,50.5,29.93,WNW,299,1.0,5.0,60,0.00,,,0.00,679,WeatherCatV1.20B467,2013-06-16 15:50:00,
2013-06-16 16:55:00,64.7,50.5,29.93,WNW,299,1.0,5.0,60,0.00,,,0.00,679,WeatherCatV1.20B467,2013-06-16 15:55:00,
2013-06-16 17:00:00,64.0,50.7,29.94,WNW,292,1.0,6.0,62,0.00,,,0.00,380,WeatherCatV1.20B467,2013-06-16 16:00:00,
2013-06-16 17:05:00,64.0,50.7,29.94,WNW,292,1.0,6.0,62,0.00,,,0.00,380,WeatherCatV1.20B467,2013-06-16 16:05:00,
2013-06-16 17:10:00,64.0,50.7,29.94,WNW,292,1.0,6.0,62,0.00,,,0.00,380,WeatherCatV1.20B467,2013-06-16 16:10:00,
2013-06-16 17:15:00,64.0,50.7,29.94,WNW,292,1.0,6.0,62,0.00,,,0.00,380,WeatherCatV1.20B467,2013-06-16 16:15:00,
2013-06-16 17:20:00,64.0,50.7,29.94,WNW,292,1.0,6.0,62,0.00,,,0.00,380,WeatherCatV1.20B467,2013-06-16 16:20:00,
2013-06-16 17:25:00,64.0,50.7,29.94,WNW,292,1.0,6.0,62,0.00,,,0.00,380,WeatherCatV1.20B467,2013-06-16 16:25:00,
2013-06-16 17:30:00,64.9,52.0,29.93,NW,315,1.0,6.0,63,0.00,,,0.00,464,WeatherCatV1.20B467,2013-06-16 16:30:00,
2013-06-16 17:35:00,64.9,52.0,29.93,NW,315,1.0,6.0,63,0.00,,,0.00,464,WeatherCatV1.20B467,2013-06-16 16:35:00,
2013-06-16 17:40:00,64.9,52.0,29.93,NW,315,1.0,6.0,63,0.00,,,0.00,464,WeatherCatV1.20B467,2013-06-16 16:40:00,
2013-06-16 17:45:00,64.9,52.0,29.93,NW,315,1.0,6.0,63,0.00,,,0.00,464,WeatherCatV1.20B467,2013-06-16 16:45:00,
2013-06-16 17:50:00,64.9,52.0,29.93,NW,315,1.0,6.0,63,0.00,,,0.00,464,WeatherCatV1.20B467,2013-06-16 16:50:00,
2013-06-16 17:55:00,64.9,52.0,29.93,NW,315,1.0,6.0,63,0.00,,,0.00,464,WeatherCatV1.20B467,2013-06-16 16:55:00,
2013-06-16 18:00:00,65.8,51.1,29.92,SE,135,1.0,6.0,59,0.00,,,0.00,448,WeatherCatV1.20B467,2013-06-16 17:00:00,
2013-06-16 18:05:00,65.8,51.1,29.92,SE,135,1.0,6.0,59,0.00,,,0.00,448,WeatherCatV1.20B467,2013-06-16 17:05:00,
2013-06-16 18:10:00,65.8,51.1,29.92,SE,135,1.0,6.0,59,0.00,,,0.00,448,WeatherCatV1.20B467,2013-06-16 17:10:00,
2013-06-16 18:15:00,65.8,51.1,29.92,SE,135,1.0,6.0,59,0.00,,,0.00,448,WeatherCatV1.20B467,2013-06-16 17:15:00,
2013-06-16 18:20:00,65.8,51.1,29.92,SE,135,1.0,6.0,59,0.00,,,0.00,448,WeatherCatV1.20B467,2013-06-16 17:20:00,
2013-06-16 18:25:00,65.8,51.1,29.92,SE,135,1.0,6.0,59,0.00,,,0.00,448,WeatherCatV1.20B467,2013-06-16 17:25:00,
2013-06-16 18:30:00,64.6,51.3,29.92,SE,135,1.0,7.0,62,0.00,,,0.00,252,WeatherCatV1.20B467,2013-06-16 17:30:00,
2013-06-16 18:35:00,64.6,51.3,29.92,SE,135,1.0,7.0,62,0.00,,,0.00,252,WeatherCatV1.20B467,2013-06-16 17:35:00,
2013-06-16 18:40:00,64.6,51.3,29.92,SE,135,1.0,7.0,62,0.00,,,0.00,252,WeatherCatV1.20B467,2013-06-16 17:40:00,
2013-06-16 18:45:00,64.6,51.3,29.92,SE,135,1.0,7.0,62,0.00,,,0.00,252,WeatherCatV1.20B467,2013-06-16 17:45:00,
2013-06-16 18:50:00,64.6,51.3,29.92,SE,135,1.0,7.0,62,0.00,,,0.00,252,WeatherCatV1.20B467,2013-06-16 17:50:00,
2013-06-16 18:55:00,64.6,51.3,29.92,SE,135,1.0,7.0,62,0.00,,,0.00,252,WeatherCatV1.20B467,2013-06-16 17:55:00,
2013-06-16 19:00:00,65.1,50.9,29.92,WNW,292,1.0,4.0,60,0.00,,,0.00,315,WeatherCatV1.20B467,2013-06-16 18:00:00,
2013-06-16 19:05:00,65.1,50.9,29.92,WNW,292,1.0,4.0,60,0.00,,,0.00,315,WeatherCatV1.20B467,2013-06-16 18:05:00,
2013-06-16 19:10:00,65.1,50.9,29.92,WNW,292,1.0,4.0,60,0.00,,,0.00,315,WeatherCatV1.20B467,2013-06-16 18:10:00,
2013-06-16 19:15:00,65.1,50.9,29.92,WNW,292,1.0,4.0,60,0.00,,,0.00,315,WeatherCatV1.20B467,2013-06-16 18:15:00,
2013-06-16 19:20:00,65.1,50.9,29.92,WNW,292,1.0,4.0,60,0.00,,,0.00,315,WeatherCatV1.20B467,2013-06-16 18:20:00,
2013-06-16 19:25:00,65.1,50.9,29.92,WNW,292,1.0,4.0,60,0.00,,,0.00,315,WeatherCatV1.20B467,2013-06-16 18:25:00,
2013-06-16 19:30:00,65.0,50.3,29.92,SE,135,2.0,7.0,59,0.00,,,0.00,279,WeatherCatV1.20B467,2013-06-16 18:30:00,
2013-06-16 19:35:00,65.0,50.3,29.92,SE,135,2.0,7.0,59,0.00,,,0.00,279,WeatherCatV1.20B467,2013-06-16 18:35:00,
2013-06-16 19:40:00,65.0,50.3,29.92,SE,135,2.0,7.0,59,0.00,,,0.00,279,WeatherCatV1.20B467,2013-06-16 18:40:00,
2013-06-16 19:45:00,65.0,50.3,29.92,SE,135,2.0,7.0,59,0.00,,,0.00,279,WeatherCatV1.20B467,2013-06-16 18:45:00,
2013-06-16 19:50:00,65.0,50.3,29.92,SE,135,2.0,7.0,59,0.00,,,0.00,279,WeatherCatV1.20B467,2013-06-16 18:50:00,
2013-06-16 19:55:00,65.0,50.3,29.92,SE,135,2.0,7.0,59,0.00,,,0.00,279,WeatherCatV1.20B467,2013-06-16 18:55:00,
2013-06-16 20:00:00,64.3,50.1,29.92,NW,315,1.0,7.0,60,0.00,,,0.00,144,WeatherCatV1.20B467,2013-06-16 19:00:00,
2013-06-16 20:05:00,64.3,50.1,29.92,NW,315,1.0,7.0,60,0.00,,,0.00,144,WeatherCatV1.20B467,2013-06-16 19:05:00,
2013-06-16 20:10:00,64.3,50.1,29.92,NW,315,1.0,7.0,60,0.00,,,0.00,144,WeatherCatV1.20B467,2013-06-16 19:10:00,
2013-06-16 20:15:00,64.3,50.1,29.92,NW,315,1.0,7.0,60,0.00,,,0.00,144,WeatherCatV1.20B467,2013-06-16 19:15:00,
2013-06-16 20:20:00,64.3,50.1,29.92,NW,315,1.0,7.0,60,0.00,,,0.00,144,WeatherCatV1.20B467,2013-06-16 19:20:00,
2013-06-16 20:25:00,64.3,50.1,29.92,NW,315,1.0,7.0,60,0.00,,,0.00,144,WeatherCatV1.20B467,2013-06-16 19:25:00,
2013-06-16 20:30:00,64.0,50.7,29.92,SE,135,1.0,5.0,62,0.00,,,0.00,107,WeatherCatV1.20B467,2013-06-16 19:30:00,
2013-06-16 20:35:00,64.0,50.7,29.92,SE,135,1.0,5.0,62,0.00,,,0.00,107,WeatherCatV1.20B467,2013-06-16 19:35:00,
2013-06-16 20:40:00,64.0,50.7,29.92,SE,135,1.0,5.0,62,0.00,,,0.00,107,WeatherCatV1.20B467,2013-06-16 19:40:00,
2013-06-16 20:45:00,64.0,50.7,29.92,SE,135,1.0,5.0,62,0.00,,,0.00,107,WeatherCatV1.20B467,2013-06-16 19:45:00,
2013-06-16 20:50:00,64.0,50.7,29.92,SE,135,1.0,5.0,62,0.00,,,0.00,107,WeatherCatV1.20B467,2013-06-16 19:50:00,
2013-06-16 20:55:00,64.0,50.7,29.92,SE,135,1.0,5.0,62,0.00,,,0.00,107,WeatherCatV1.20B467,2013-06-16 19:55:00,
2013-06-16 21:00:00,63.3,50.5,29.93,SE,135,1.0,6.0,63,0.00,,,0.00,43,WeatherCatV1.20B467,2013-06-16 20:00:00,
2013-06-16 21:05:00,63.3,50.5,29.93,SE,135,1.0,6.0,63,0.00,,,0.00,43,WeatherCatV1.20B467,2013-06-16 20:05:00,
2013-06-16 21:10:00,63.3,50.5,29.93,SE,135,1.0,6.0,63,0.00,,,0.00,43,WeatherCatV1.20B467,2013-06-16 20:10:00,
2013-06-16 21:15:00,63.3,50.5,29.93,SE,135,1.0,6.0,63,0.00,,,0.00,43,WeatherCatV1.20B467,2013-06-16 20:15:00,
2013-06-16 21:20:00,63.3,50.5,29.93,SE,135,1.0,6.0,63,0.00,,,0.00,43,WeatherCatV1.20B467,2013-06-16 20:20:00,
2013-06-16 21:25:00,63.3,50.5,29.93,SE,135,1.0,6.0,63,0.00,,,0.00,43,WeatherCatV1.20B467,2013-06-16 20:25:00,
2013-06-16 21:30:00,61.8,50.3,29.94,SE,135,2.0,6.0,66,0.00,,,0.00,11,WeatherCatV1.20B467,2013-06-16 20:30:00,
2013-06-16 21:35:00,61.8,50.3,29.94,SE,135,2.0,6.0,66,0.00,,,0.00,11,WeatherCatV1.20B467,2013-06-16 20:35:00,
2013-06-16 21:40:00,61.8,50.3,29.94,SE,135,2.0,6.0,66,0.00,,,0.00,11,WeatherCatV1.20B467,2013-06-16 20:40:00,
2013-06-16 21:45:00,61.8,50.3,29.94,SE,135,2.0,6.0,66,0.00,,,0.00,11,WeatherCatV1.20B467,2013-06-16 20:45:00,
2013-06-16 21:50:00,61.8,50.3,29.94,SE,135,2.0,6.0,66,0.00,,,0.00,11,WeatherCatV1.20B467,2013-06-16 20:50:00,
2013-06-16 21:55:00,61.8,50.3,29.94,SE,135,2.0,6.0,66,0.00,,,0.00,11,WeatherCatV1.20B467,2013-06-16 20:55:00,
2013-06-16 22:00:00,60.9,49.5,29.94,NW,315,1.0,5.0,66,0.00,,,0.00,0,WeatherCatV1.20B467,2013-06-16 21:00:00,
2013-06-16 22:05:00,60.9,49.5,29.94,NW,315,1.0,5.0,66,0.00,,,0.00,0,WeatherCatV1.20B467,2013-06-16 21:05:00,
2013-06-16 22:10:00,60.9,49.5,29.94,NW,315,1.0,5.0,66,0.00,,,0.00,0,WeatherCatV1.20B467,2013-06-16 21:10:00,
2013-06-16 22:15:00,60.9,49.5,29.94,NW,315,1.0,5.0,66,0.00,,,0.00,0,WeatherCatV1.20B467,2013-06-16 21:15:00,
2013-06-16 22:20:00,60.9,49.5,29.94,NW,315,1.0,5.0,66,0.00,,,0.00,0,WeatherCatV1.20B467,2013-06-16 21:20:00,
2013-06-16 22:25:00,60.9,49.5,29.94,NW,315,1.0,5.0,66,0.00,,,0.00,0,WeatherCatV1.20B467,2013-06-16 21:25:00,
2013-06-16 22:30:00,59.7,47.9,29.95,NW,315,0.0,5.0,65,0.00,,,0.00,0,WeatherCatV1.20B467,2013-06-16 21:30:00,
2013-06-16 22:35:00,59.7,47.9,29.95,NW,315,0.0,5.0,65,0.00,,,0.00,0,WeatherCatV1.20B467,2013-06-16 21:35:00,
2013-06-16 22:40:00,59.7,47.9,29.95,NW,315,0.0,5.0,65,0.00,,,0.00,0,WeatherCatV1.20B467,2013-06-16 21:40:00,
2013-06-16 22:45:00,59.7,47.9,29.95,NW,315,0.0,5.0,65,0.00,,,0.00,0,WeatherCatV1.20B467,2013-06-16 21:45:00,
2013-06-16 22:50:00,59.7,47.9,29.95,NW,315,0.0,5.0,65,0.00,,,0.00,0,WeatherCatV1.20B467,2013-06-16 21:50:00,
2013-06-16 22:55:00,59.7,47.9,29.95,NW,315,0.0,5.0,65,0.00,,,0.00,0,WeatherCatV1.20B467,2013-06-16 21:55:00,
2013-06-16 23:00:00,58.2,48.1,29.96,NNW,338,0.0,1.0,69,0.00,,,0.00,0,WeatherCatV1.20B467,2013-06-16 22:00:00,
2013-06-16 23:05:00,58.2,48.1,29.96,NNW,338,0.0,1.0,69,0.00,,,0.00,0,WeatherCatV1.20B467,2013-06-16 22:05:00,
2013-06-16 23:10:00,58.2,48.1,29.96,NNW,338,0.0,1.0,69,0.00,,,0.00,0,WeatherCatV1.20B467,2013-06-16 22:10:00,
2013-06-16 23:15:00,58.2,48.1,29.96,NNW,338,0.0,1.0,69,0.00,,,0.00,0,WeatherCatV1.20B467,2013-06-16 22:15:00,
2013-06-16 23:20:00,58.2,48.1,29.96,NNW,338,0.0,1.0,69,0.00,,,0.00,0,WeatherCatV1.20B467,2013-06-16 22:20:00,
2013-06-16 23:25:00,58.2,48.1,29.96,NNW,338,0.0,1.0,69,0.00,,,0.00,0,WeatherCatV1.20B467,2013-06-16 22:25:00,
2013-06-16 23:30:00,57.2,48.6,29.96,NNW,338,0.0,0.0,73,0.00,,,0.00,0,WeatherCatV1.20B467,2013-06-16 22:30:00,
2013-06-16 23:35:00,57.2,48.6,29.96,NNW,338,0.0,0.0,73,0.00,,,0.00,0,WeatherCatV1.20B467,2013-06-16 22:35:00,
2013-06-16 23:40:00,57.2,48.6,29.96,NNW,338,0.0,0.0,73,0.00,,,0.00,0,WeatherCatV1.20B467,2013-06-16 22:40:00,
2013-06-16 23:45:00,57.2,48.6,29.96,NNW,338,0.0,0.0,73,0.00,,,0.00,0,WeatherCatV1.20B467,2013-06-16 22:45:00,
2013-06-16 23:50:00,57.2,48.6,29.96,NNW,338,0.0,0.0,73,0.00,,,0.00,0,WeatherCatV1.20B467,2013-06-16 22:50:00,
2013-06-16 23:55:00,57.2,48.6,29.96,NNW,338,0.0,0.0,73,0.00,,,0.00,0,WeatherCatV1.20B467,2013-06-16 22:55:00,